Home   Weather   Thônex   Past weeks

Flag for Switzerland Past Weather in Thônex, Geneva, Switzerland — Yesterday and Last 2 Weeks

39 °F


Feels Like: 39 °F
Forecast: 42 / 62 °F
Wind: 2 mph from Southwest

Location: Geneva Cointrin Airport

Current Time: Oct 28, 2016 at 6:43:16 AM

Latest Report: Oct 28, 2016 at 6:20 AM

Visibility: 10 mi

Pressure: 30.51 "Hg

Humidity: 93%

Dew Point: 37 °F

Location of ThônexLocation

Past Weather in Thônex — Graph


Thônex Temperature Yesterday

Maximum temperature yesterday: 59 °F (at 2:20 PM)
Minimum temperature yesterday: 45 °F (at 11:20 PM)
Average temperature yesterday: 53 °F

High & Low Weather Summary for the Past Weeks

High64 °F (Oct 15, 2:50 PM)100% (Oct 14, 12:20 AM)30.51 "Hg (Oct 14, 12:20 AM)
Low32 °F (Oct 22, 5:50 AM)51% (Oct 20, 2:20 PM)29.65 "Hg (Oct 14, 3:50 PM)
Average50 °F89%30.08 "Hg
* Reported Oct 13 5:20 AM — Oct 28 5:20 AM, Thônex, Weather by CustomWeather, © 2016

Note: Actual official high and low records may vary slightly from our data, if they occured in-between our weather recording intervals... More about our weather records


Thônex Weather History for the Previous 24 Hours

Scroll right to see more
Time TempWeatherWind HumidityBarometerVisibility
5:20 AM
Fri, Oct 28
39 °FChilly.2 mph93%30.51 "HgN/A
4:50 AM39 °FChilly.1 mph100%30.51 "HgN/A
4:20 AM39 °FChilly.2 mph100%30.51 "HgN/A
3:50 AM41 °FQuite cool.2 mph93%30.51 "HgN/A
3:20 AM41 °FQuite cool.2 mph93%30.51 "HgN/A
2:50 AM41 °FQuite cool.2 mph100%30.51 "HgN/A
2:20 AM41 °FQuite cool.2 mph100%30.51 "HgN/A
1:50 AM41 °FClear.1 mph93%30.51 "HgN/A
1:20 AM43 °FPassing clouds.1 mph93%30.51 "HgN/A
12:50 AM43 °FQuite cool.1 mph100%30.51 "HgN/A
12:20 AM43 °FQuite cool.1 mph100%30.51 "HgN/A
11:50 PM
Thu, Oct 27
45 °FPassing clouds.2 mph93%30.51 "HgN/A
11:20 PM45 °FQuite cool.2 mph93%30.51 "HgN/A
10:50 PM46 °FPassing clouds.2 mph87%30.51 "HgN/A
10:20 PM48 °FPassing clouds.3 mph87%30.51 "HgN/A
9:50 PM50 °FPassing clouds.5 mph82%30.51 "HgN/A
9:20 PM52 °FClear.6 mph77%30.51 "Hg10 mi
8:50 PM50 °FClear.6 mph82%30.48 "Hg10 mi
8:20 PM50 °FPassing clouds.3 mph82%30.48 "HgN/A
7:50 PM52 °FClear.6 mph82%30.48 "Hg10 mi
7:20 PM54 °FClear.6 mph72%30.48 "Hg10 mi
6:50 PM55 °FClear.7 mph67%30.48 "Hg10 mi
6:20 PM55 °FPassing clouds.9 mph72%30.45 "HgN/A
5:50 PM57 °FPassing clouds.13 mph67%30.45 "HgN/A
5:20 PM57 °FPassing clouds.12 mph67%30.45 "HgN/A
4:50 PM59 °FPassing clouds.12 mph63%30.45 "HgN/A
4:20 PM59 °FPassing clouds.12 mph63%30.45 "HgN/A
3:50 PM59 °FPassing clouds.13 mph63%30.45 "HgN/A
3:20 PM59 °FPassing clouds.14 mph63%30.45 "HgN/A
2:50 PM59 °FPassing clouds.14 mph63%30.45 "HgN/A
2:20 PM59 °FPassing clouds.16 mph68%30.45 "HgN/A
1:50 PM57 °FPassing clouds.14 mph72%30.48 "HgN/A
1:20 PM57 °FPassing clouds.16 mph67%30.48 "HgN/A
12:50 PM55 °FPassing clouds.15 mph72%30.48 "HgN/A
12:20 PM57 °FPassing clouds.16 mph67%30.48 "HgN/A
11:50 AM55 °FPassing clouds.15 mph72%30.48 "HgN/A
11:20 AM54 °FScattered clouds.15 mph77%30.48 "HgN/A
10:50 AM54 °FScattered clouds.12 mph77%30.48 "HgN/A
10:20 AM54 °FScattered clouds.12 mph77%30.48 "HgN/A
9:50 AM54 °FScattered clouds.5 mph77%30.48 "HgN/A
9:20 AM54 °FPartly sunny.8 mph77%30.45 "HgN/A
8:50 AM54 °FBroken clouds.9 mph77%30.45 "HgN/A
8:20 AM52 °FBroken clouds.7 mph88%30.45 "HgN/A
7:50 AM52 °FPassing clouds.8 mph82%30.42 "HgN/A
7:20 AM52 °FPassing clouds.7 mph82%30.42 "HgN/A
6:50 AM52 °FPassing clouds.7 mph82%30.42 "HgN/A
6:20 AM52 °FOvercast.3 mph82%30.42 "HgN/A
Weather by CustomWeather, © 2016

See weather overviewHow to use our weather pages